Location: Pasadena, ca
(34.1243°N, 118.1037°W)
Time: 13:47:15
(UTC-07:00)

Envisat - Pass Details

Date: 16 October 2017
Orbit: 764 x 766 km, 98.2° (Epoch: 23 October)

Event Time Altitude Azimuth Distance (km) Brightness Sun altitude
Exits shadow 21:06:42 18° 337° (NNW) 1,814 5.2 -35.8°
Drops below altitude 10° 21:07:59 10° 340° (NNW) 2,306 5.8 -36.1°
Sets 21:10:20 0° 344° (NNW) 3,235 6.6 -36.5°
